[[{"header":{"parameterUnit":"m.s-1","parameterCategory":1,"la1":30.2991,"la2":30.254,"lo1":-89.0895,"lo2":-89.0444,"dy":0.0017,"dx":0.0017,"nx":28,"ny":28,"refTime":"2025-06-21T03:00:00:Z","depth":0,"parameterNumber":2,"parameterNumberName":"U-component_of_WINDS"},"data":[0,0,0,0,0,0,0,0,0,0,0,0,0,0,0,0,0,0,0,0,0,0,0,0,0,0,0,0,0,0,0,0,0,0,0,0,0,0,0,0,0,0,0,0,0,0,0,0,0,0,0,0,0,0,0,0,0,0,-1.3099,-1.3099,0,-1.3051,-1.3051,-1.305,-1.3003,-1.3003,-1.3002,-1.3001,-1.2952,-1.2951,-1.295,0,0,0,0,0,0,0,0,0,0,0,0,0,-1.3152,-1.3151,-1.3099,-1.3099,-1.3098,-1.3051,-1.3051,-1.305,-1.3003,-1.3003,-1.3002,-1.3001,-1.2952,-1.2951,-1.295,0,0,0,0,0,0,0,0,0,0,0,0,0,-1.3119,-1.3151,-1.3099,-1.3069,-1.3066,-1.3051,-1.3051,-1.305,-1.3003,-1.3003,-1.3002,-1.3001,-1.2952,-1.2951,-1.295,-1.2961,0,0,-1.2947,-1.2946,0,0,0,0,0,0,0,0,-1.3121,-1.3117,-1.3074,-1.3071,-1.3068,-1.3032,-1.3051,-1.302,-1.3004,-1.3027,-1.3001,-1.3,-1.2979,-1.2976,-1.2969,-1.2959,-1.2957,-1.2947,-1.2946,-1.2946,-1.2945,0,0,0,0,0,0,0,-1.3123,-1.3119,-1.308,-1.3074,-1.307,-1.3058,-1.3053,-1.3045,-1.3009,-1.3025,-1.3022,-1.3017,-1.2977,-1.297,-1.2967,-1.2956,-1.2947,-1.2946,-1.2945,-1.2945,-1.2954,-1.2955,0,0,0,0,0,0,-1.313,-1.3121,-1.3082,-1.3079,-1.3092,-1.3058,-1.3052,-1.3045,-1.3009,-1.3003,-1.3017,-1.3015,-1.2972,-1.2969,-1.2965,-1.2976,-1.2946,-1.2944,-1.2944,-1.2953,-1.2954,-1.2955,0,0,0,0,0,0,-1.3131,-1.3127,-1.3084,-1.3099,-1.3092,-1.3058,-1.305,-1.3044,-1.3037,-1.3003,-1.2996,-1.3016,-1.2972,-1.2967,-1.2963,-1.2974,-1.2944,-1.2943,-1.2952,-1.2953,-1.2955,-1.2998,0,0,0,0,0,0,-1.3133,-1.3128,-1.3131,-1.3099,-1.3092,-1.3082,-1.3051,-1.3044,-1.3035,-1.3031,-1.3,-1.2995,-1.2971,-1.2965,-1.2962,-1.2972,-1.2942,-1.2951,-1.2953,-1.2954,-1.2996,-1.3001,-1.3006,0,0,0,0,0,-1.3135,-1.3145,-1.3132,-1.3127,-1.3096,-1.3083,-1.3078,-1.3051,-1.3036,-1.3039,-1.3018,-1.2996,-1.2974,-1.2965,-1.2961,-1.2971,-1.295,-1.2952,-1.2954,-1.2994,-1.3,-1.3006,0,0,0,0,0,0,-1.3179,-1.314,-1.3125,-1.3125,-1.3108,-1.3075,-1.3078,-1.3058,-1.3044,-1.3041,-1.3007,-1.3001,-1.3001,-1.2985,-1.2976,-1.298,-1.2959,-1.296,-1.299,-1.2996,-1.3001,-1.3004,-1.2941,0,0,0,0,0,-1.3189,-1.3181,-1.3148,-1.3152,-1.3144,-1.3113,-1.3106,-1.3086,-1.3066,-1.3059,-1.3037,-1.3019,-1.3008,-1.3001,-1.2989,-1.2994,-1.2987,-1.2999,-1.3004,-1.3008,-1.3009,-1.3011,-1.3016,-1.2962,-1.2962,-1.2962,0,0,-1.3209,-1.3187,-1.3184,-1.316,-1.3144,-1.3137,-1.3107,-1.3101,-1.3095,-1.3058,-1.3052,-1.3036,-1.3014,-1.3014,-1.3013,-1.3002,-1.3023,-1.3011,-1.3014,-1.3013,-1.3014,-1.3019,-1.3024,-1.2964,-1.2963,-1.2963,0,0,-1.3242,-1.3225,-1.3226,-1.3211,-1.3187,-1.3167,-1.3167,-1.3137,-1.3125,-1.3119,-1.3091,-1.3085,-1.3066,-1.3052,-1.3042,-1.3071,-1.305,-1.3068,-1.3093,-1.3096,-1.31,-1.3103,-1.3114,-1.3118,-1.307,-1.307,-1.307,0,-1.327,-1.3259,-1.3229,-1.3225,-1.3215,-1.3182,-1.3183,-1.3169,-1.3143,-1.3137,-1.3125,-1.3102,-1.3084,-1.3081,-1.3088,-1.3081,-1.3081,-1.3071,-1.3102,-1.3105,-1.3108,-1.3117,-1.3121,-1.3072,-1.3072,-1.3072,-1.3071,0,-1.3294,-1.3287,-1.3291,-1.3266,-1.3257,-1.3256,-1.3226,-1.3221,-1.3202,-1.3183,-1.3178,-1.3156,-1.314,-1.3138,-1.3119,-1.3132,-1.3126,-1.3108,-1.3085,-1.3116,-1.3124,-1.3128,-1.3076,-1.3075,-1.3074,-1.3073,0,0,-1.3353,-1.3313,-1.3315,-1.3304,-1.3276,-1.3269,-1.3267,-1.325,-1.3246,-1.323,-1.3227,-1.3213,-1.3196,-1.3185,-1.3165,-1.3167,-1.3192,-1.3149,-1.3148,-1.3158,-1.3205,-1.3218,-1.3223,-1.3178,-1.3179,-1.3179,-1.3207,0,-1.3381,-1.3374,-1.3348,-1.3349,-1.3342,-1.331,-1.3308,-1.3291,-1.3273,-1.3265,-1.3246,-1.3236,-1.3215,-1.3209,-1.3209,-1.3189,-1.3201,-1.3186,-1.3175,-1.3175,-1.3181,-1.3227,-1.3241,-1.3268,-1.321,-1.321,-1.3211,0,-1.3413,-1.3398,-1.3399,-1.3371,-1.3367,-1.3366,-1.3349,-1.3341,-1.3321,-1.3309,-1.3297,-1.3275,-1.3271,-1.325,-1.3244,-1.3235,-1.3229,-1.3219,-1.3219,-1.3216,-1.3194,-1.3225,-1.3276,-1.328,-1.3215,-1.3215,-1.3215,0,-1.3456,-1.3436,-1.3434,-1.3425,-1.3393,-1.3393,-1.338,-1.3359,-1.3351,-1.3337,-1.3331,-1.3317,-1.3309,-1.3298,-1.3273,-1.3261,-1.327,-1.3248,-1.3259,-1.326,-1.3262,-1.3262,-1.3312,-1.3259,-1.3259,-1.3259,-1.3259,0,-1.349,-1.3491,-1.3453,-1.3451,-1.3452,-1.3423,-1.3424,-1.3408,-1.339,-1.3385,-1.3357,-1.3353,-1.332,-1.3313,-1.3293,-1.3291,-1.3288,-1.3278,-1.3272,-1.328,-1.3281,-1.3275,-1.3272,-1.326,-1.326,-1.326,-1.3259,0,-1.3538,-1.3512,-1.3507,-1.3477,-1.347,-1.3472,-1.3446,-1.3444,-1.3425,-1.342,-1.3417,-1.3387,-1.3377,-1.3351,-1.3334,-1.3321,-1.3324,-1.3315,-1.3331,-1.3328,-1.3341,-1.334,-1.3388,-1.3393,-1.3337,-1.3338,-1.3338,0,-1.3561,-1.3561,-1.3531,-1.3526,-1.3514,-1.3506,-1.3497,-1.3469,-1.3461,-1.3439,-1.344,-1.3427,-1.3416,-1.3401,-1.3378,-1.3365,-1.3355,-1.3373,-1.3353,-1.3361,-1.3355,-1.3356,-1.3356,-1.3377,-1.3378,-1.3378,-1.3379,0,-1.3605,-1.3592,-1.3581,-1.3566,-1.3558,-1.3544,-1.353,-1.3527,-1.3495,-1.3488,-1.3478,-1.3469,-1.3452,-1.344,-1.3423,-1.341,-1.3389,-1.3386,-1.3388,-1.3395,-1.3405,-1.34,-1.3343,-1.3384,-1.3384,-1.3383,-1.3383,-1.3383,-1.3641,-1.364,-1.3619,-1.3608,-1.3594,-1.3581,-1.3577,-1.3558,-1.3549,-1.3532,-1.3516,-1.3507,-1.3488,-1.3464,-1.3452,-1.3445,-1.3434,-1.3437,-1.3438,-1.3439,-1.3442,-1.3406,-1.3442,-1.3442,-1.3442,-1.3441,-1.3441,0,-1.3683,-1.3669,-1.3659,-1.3639,-1.3631,-1.3612,-1.3595,-1.359,-1.3582,-1.3566,-1.3555,-1.3543,-1.3532,-1.3508,-1.3495,-1.3494,-1.3484,-1.3491,-1.3491,-1.3488,-1.3453,-1.3452,-1.3499,-1.3499,-1.3499,-1.3499,-1.3499,-1.3499,-1.3705,-1.3702,-1.3687,-1.3677,-1.3662,-1.3653,-1.3645,-1.3633,-1.362,-1.3608,-1.3598,-1.3583,-1.3564,-1.3549,-1.3538,-1.3532,-1.3528,-1.3539,-1.3529,-1.3496,-1.3491,-1.3485,-1.3485,-1.3538,-1.3538,-1.3565,-1.3565,-1.3566]},{"header":{"parameterUnit":"m.s-1","parameterCategory":1,"la1":30.2991,"la2":30.254,"lo1":-89.0895,"lo2":-89.0444,"dy":0.0017,"dx":0.0017,"nx":28,"ny":28,"refTime":"2025-06-21T03:00:00:Z","depth":0,"parameterNumber":3,"parameterNumberName":"V-component_of_WINDS"},"data":[0,0,0,0,0,0,0,0,0,0,0,0,0,0,0,0,0,0,0,0,0,0,0,0,0,0,0,0,0,0,0,0,0,0,0,0,0,0,0,0,0,0,0,0,0,0,0,0,0,0,0,0,0,0,0,0,0,0,2.982,2.982,0,2.9832,2.9832,2.9832,2.9815,2.9815,2.9814,2.9814,2.9825,2.9826,2.9827,0,0,0,0,0,0,0,0,0,0,0,0,0,2.9782,2.9783,2.982,2.982,2.982,2.9832,2.9832,2.9832,2.9816,2.9815,2.9814,2.9813,2.9825,2.9826,2.9827,0,0,0,0,0,0,0,0,0,0,0,0,0,2.9797,2.9783,2.982,2.9813,2.9813,2.9832,2.9832,2.9832,2.9816,2.9815,2.9814,2.9813,2.9825,2.9826,2.9827,2.9853,0,0,2.9831,2.9832,0,0,0,0,0,0,0,0,2.9796,2.9798,2.9814,2.9814,2.9813,2.9821,2.9823,2.9839,2.9816,2.9815,2.9814,2.9813,2.9825,2.9826,2.983,2.9853,2.9854,2.9831,2.9832,2.9832,2.9833,0,0,0,0,0,0,0,2.9795,2.9797,2.9825,2.9814,2.9814,2.981,2.9811,2.9826,2.9824,2.9815,2.9813,2.9815,2.9824,2.9829,2.983,2.9854,2.9831,2.9832,2.9833,2.9834,2.99,2.99,0,0,0,0,0,0,2.9795,2.9797,2.9824,2.9825,2.9802,2.9811,2.9812,2.982,2.9824,2.9824,2.9816,2.9814,2.9827,2.9829,2.983,2.9861,2.9832,2.9834,2.9834,2.9899,2.99,2.9901,0,0,0,0,0,0,2.9794,2.9797,2.9824,2.9811,2.9814,2.9813,2.9821,2.982,2.9825,2.9825,2.9825,2.9821,2.9826,2.9829,2.9848,2.9861,2.9834,2.9835,2.9897,2.9899,2.99,2.9923,0,0,0,0,0,0,2.9793,2.9797,2.9807,2.9811,2.9814,2.9841,2.9822,2.9821,2.9827,2.9825,2.983,2.983,2.9826,2.9846,2.9849,2.9863,2.9836,2.9896,2.9898,2.99,2.9921,2.9925,2.9929,0,0,0,0,0,2.9792,2.9813,2.9808,2.9811,2.9827,2.9842,2.9844,2.9839,2.9829,2.9838,2.9839,2.983,2.9859,2.9848,2.9851,2.9866,2.9895,2.9898,2.99,2.9919,2.9924,2.9929,0,0,0,0,0,0,2.981,2.9813,2.9808,2.9831,2.9836,2.9839,2.9851,2.9845,2.9853,2.9851,2.9844,2.9846,2.9866,2.9868,2.9855,2.9891,2.9876,2.9879,2.9889,2.9894,2.9898,2.9897,2.9837,0,0,0,0,0,2.9817,2.9829,2.9831,2.9851,2.9854,2.9852,2.9859,2.9855,2.986,2.9862,2.9864,2.9869,2.988,2.9887,2.9897,2.9921,2.9922,2.9933,2.9936,2.994,2.9942,2.9956,2.9961,2.9908,2.9908,2.9908,0,0,2.9831,2.9834,2.9842,2.9855,2.9859,2.9872,2.9855,2.9868,2.9878,2.9864,2.9883,2.9884,2.9889,2.9911,2.9921,2.9913,2.9957,2.9942,2.9945,2.9946,2.9959,2.9964,2.9968,2.991,2.9909,2.9909,0,0,2.9864,2.9867,2.9885,2.9889,2.9895,2.9894,2.9898,2.9902,2.9902,2.9921,2.9911,2.9922,2.994,2.9944,2.9949,2.9983,2.9976,2.9987,3.0007,3.002,3.0024,3.0028,3.004,3.0045,2.9989,2.9989,2.9989,0,2.9881,2.99,2.9895,2.991,2.9915,2.9904,2.9922,2.9926,2.9935,2.9939,2.993,2.9953,2.9956,2.9979,2.9988,2.9991,2.9996,2.9986,3.0024,3.0027,3.0031,3.0043,3.0048,2.9991,2.9991,2.9991,2.999,0,2.9921,2.9934,2.9947,2.9956,2.9964,2.998,2.9977,2.9985,2.998,2.998,2.9998,3.0001,3.0012,3.0017,3.0012,3.0039,3.0035,3.0025,3.0009,3.0037,3.0049,3.0053,2.9993,2.9992,2.9992,2.9992,0,0,2.9966,2.9972,2.9977,2.9981,2.9987,2.9997,3.0013,3.0023,3.003,3.0036,3.005,3.0065,3.0057,3.0062,3.0058,3.0069,3.0097,3.0058,3.0058,3.0066,3.0128,3.0135,3.0141,3.0092,3.0092,3.0093,3.0127,0,2.9999,3.0026,3.0022,3.0048,3.006,3.005,3.0063,3.0068,3.0068,3.0078,3.0078,3.009,3.0077,3.008,3.0091,3.0091,3.0109,3.0089,3.0104,3.0105,3.0104,3.0147,3.0155,3.0187,3.0132,3.0132,3.0133,0,3.0041,3.0049,3.0077,3.0081,3.0086,3.0099,3.0108,3.0118,3.0123,3.0122,3.0129,3.0122,3.0138,3.0122,3.0143,3.0129,3.0135,3.0136,3.0137,3.0139,3.0121,3.015,3.0197,3.0202,3.014,3.0139,3.0139,0,3.0072,3.009,3.0109,3.0113,3.0118,3.0127,3.013,3.0134,3.0141,3.0149,3.0153,3.0163,3.0168,3.0176,3.0172,3.016,3.0194,3.0178,3.0194,3.0195,3.0202,3.0202,3.0252,3.0205,3.0205,3.0205,3.0205,0,3.0109,3.0127,3.0123,3.0135,3.0154,3.0149,3.0168,3.0169,3.0173,3.0185,3.0176,3.0187,3.0182,3.0193,3.019,3.0208,3.0211,3.021,3.021,3.0212,3.0212,3.0216,3.0214,3.0206,3.0206,3.0206,3.0206,0,3.0148,3.0145,3.0166,3.0169,3.017,3.0184,3.0187,3.0198,3.0197,3.0212,3.0216,3.0214,3.0227,3.0224,3.0237,3.0235,3.0259,3.0255,3.0257,3.0256,3.0273,3.0272,3.0328,3.0335,3.0283,3.0284,3.0284,0,3.0172,3.0185,3.019,3.0198,3.0201,3.0213,3.022,3.0215,3.0222,3.023,3.024,3.0251,3.026,3.028,3.0281,3.0291,3.0288,3.0306,3.0289,3.0291,3.0289,3.0288,3.029,3.031,3.0311,3.0311,3.0312,0,3.0216,3.0215,3.0225,3.0235,3.0243,3.0251,3.0258,3.0264,3.026,3.0268,3.0281,3.0288,3.0302,3.0314,3.0323,3.0325,3.0318,3.0317,3.0321,3.0324,3.0325,3.0326,3.0267,3.0316,3.0315,3.0315,3.0315,3.0315,3.0249,3.026,3.0266,3.0277,3.0282,3.0288,3.0299,3.03,3.031,3.0321,3.0317,3.0332,3.0337,3.0349,3.0353,3.0364,3.0357,3.0363,3.0365,3.0367,3.0369,3.0323,3.0366,3.0365,3.0365,3.0365,3.0365,0,3.0293,3.0296,3.0307,3.0317,3.0326,3.0318,3.0325,3.0333,3.0346,3.0352,3.0361,3.0375,3.0387,3.0388,3.0399,3.0407,3.0404,3.041,3.041,3.0411,3.0375,3.037,3.0413,3.0413,3.0413,3.0413,3.0413,3.0413,3.0317,3.0336,3.0335,3.0357,3.0359,3.0374,3.0378,3.0384,3.0389,3.0406,3.0415,3.0416,3.042,3.0431,3.0441,3.0441,3.0445,3.0453,3.0452,3.0418,3.0413,3.0409,3.0405,3.0454,3.0454,3.0487,3.0488,3.0488]}]]